Ocean Spirit of Moray — MVXF5 — position and weather

sailwx.info

Track history (hours):
 
Tides and Currents Weather Stations Pressure Air Temp Water Temp Dewpoint Dewpoint Depression Visibility Wind Speed Wind Dir Waves Ship Positions

Ocean Spirit of Moray (United Kingdom)

Ship's website: http://www.gordonstoun.org.uk/

Last reported at 2017-Sep-22 00:35 UTC. Time now 2017-Sep-22 17:17 UTC.
Position N 57°21' W 005°38'.

Length 24 m; draft 3 m.

Type: Sailing vessel. MMSI: 232007590.

Date/timePositionNaut miles runAvg speedWind from/ knotsBaromVisibWave heightAir tempDewpointWater temp
2017-Sep-22 00:35N 57°21' W 005°38'0 0.0
2017-Sep-21 22:12N 57°21' W 005°38'0 0.0
2017-Sep-21 15:29N 57°21' W 005°38'0 0.0
2017-Sep-21 12:26N 57°21' W 005°38'0 0.0
2017-Sep-21 11:38N 57°21' W 005°38'0 0.0
2017-Sep-21 08:44N 57°21' W 005°38'0 0.0
2017-Sep-21 08:29N 57°21' W 005°38'0 0.0
2017-Sep-21 07:56N 57°21' W 005°38'0 0.0
2017-Sep-21 05:35N 57°21' W 005°38'0 0.0
2017-Sep-21 05:17N 57°21' W 005°38'0 0.0
2017-Sep-21 04:02N 57°21' W 005°38'0 0.0
2017-Sep-21 03:59N 57°21' W 005°38'0 0.0
2017-Sep-21 03:26N 57°21' W 005°38'0 0.0
2017-Sep-21 02:59N 57°21' W 005°38'0 0.0
2017-Sep-21 02:26N 57°21' W 005°38'0 0.0
2017-Sep-21 01:47N 57°21' W 005°38'0 0.0
2017-Sep-21 01:14N 57°21' W 005°38'0 0.0
2017-Sep-21 00:08N 57°21' W 005°38'0 0.0
2017-Sep-20 22:08N 57°21' W 005°38'0 0.0
2017-Sep-20 21:53N 57°21' W 005°38'0 0.0
2017-Sep-20 21:26N 57°21' W 005°38'0 0.0
2017-Sep-20 20:08N 57°21' W 005°38'0 0.0
2017-Sep-20 19:44N 57°21' W 005°38'0 0.0
2017-Sep-20 17:50N 57°21' W 005°38'0 0.0
2017-Sep-20 17:23N 57°21' W 005°38'0 0.0
2017-Sep-20 16:32N 57°21' W 005°38'0 0.0
2017-Sep-20 16:23N 57°21' W 005°38'0 0.0
2017-Sep-20 15:04N 57°21' W 005°38'0 3.7
2017-Sep-20 14:57N 57°21' W 005°39'6 5.8
2017-Sep-20 14:00N 57°17' W 005°45'  
2017-Sep-16 10:29N 57°21' W 005°54'3 6.5
2017-Sep-16 10:00N 57°19' W 005°49'4 6.8
2017-Sep-16 09:28N 57°21' W 005°43'2 0.6
2017-Sep-16 05:20N 57°21' W 005°38'0 0.0
2017-Sep-16 00:47N 57°21' W 005°38'0 0.0
2017-Sep-15 17:14N 57°21' W 005°38'0 0.0
2017-Sep-15 00:53N 57°21' W 005°38'0 0.0
2017-Sep-14 23:44N 57°21' W 005°38'0 0.0
2017-Sep-14 14:29N 57°21' W 005°38'0 0.0
2017-Sep-14 13:50N 57°21' W 005°38'0 0.0
2017-Sep-14 13:21N 57°21' W 005°38'0 0.0
2017-Sep-14 12:58N 57°21' W 005°38'2 3.9
2017-Sep-14 12:30N 57°22' W 005°41'3 5.5
2017-Sep-14 12:00N 57°20' W 005°46'4 7.6
2017-Sep-14 11:30N 57°19' W 005°52'  
Track history (hours):
 
Tides and Currents Weather Stations Pressure Air Temp Water Temp Dewpoint Dewpoint Depression Visibility Wind Speed Wind Dir Waves Ship Positions

Ocean Spirit of Moray (United Kingdom)

Ship's website: http://www.gordonstoun.org.uk/

Last reported at 2017-Sep-22 00:35 UTC. Time now 2017-Sep-22 17:17 UTC.
Position N 57°21' W 005°38'.

Length 24 m; draft 3 m.

Type: Sailing vessel. MMSI: 232007590.

Date/timePositionNaut miles runAvg speedWind from/ knotsBaromVisibWave heightAir tempDewpointWater temp
2017-Sep-22 00:35N 57°21' W 005°38'0 0.0
2017-Sep-21 22:12N 57°21' W 005°38'0 0.0
2017-Sep-21 15:29N 57°21' W 005°38'0 0.0
2017-Sep-21 12:26N 57°21' W 005°38'0 0.0
2017-Sep-21 11:38N 57°21' W 005°38'0 0.0
2017-Sep-21 08:44N 57°21' W 005°38'0 0.0
2017-Sep-21 08:29N 57°21' W 005°38'0 0.0
2017-Sep-21 07:56N 57°21' W 005°38'0 0.0
2017-Sep-21 05:35N 57°21' W 005°38'0 0.0
2017-Sep-21 05:17N 57°21' W 005°38'0 0.0
2017-Sep-21 04:02N 57°21' W 005°38'0 0.0
2017-Sep-21 03:59N 57°21' W 005°38'0 0.0
2017-Sep-21 03:26N 57°21' W 005°38'0 0.0
2017-Sep-21 02:59N 57°21' W 005°38'0 0.0
2017-Sep-21 02:26N 57°21' W 005°38'0 0.0
2017-Sep-21 01:47N 57°21' W 005°38'0 0.0
2017-Sep-21 01:14N 57°21' W 005°38'0 0.0
2017-Sep-21 00:08N 57°21' W 005°38'0 0.0
2017-Sep-20 22:08N 57°21' W 005°38'0 0.0
2017-Sep-20 21:53N 57°21' W 005°38'0 0.0
2017-Sep-20 21:26N 57°21' W 005°38'0 0.0
2017-Sep-20 20:08N 57°21' W 005°38'0 0.0
2017-Sep-20 19:44N 57°21' W 005°38'0 0.0
2017-Sep-20 17:50N 57°21' W 005°38'0 0.0
2017-Sep-20 17:23N 57°21' W 005°38'0 0.0
2017-Sep-20 16:32N 57°21' W 005°38'0 0.0
2017-Sep-20 16:23N 57°21' W 005°38'0 0.0
2017-Sep-20 15:04N 57°21' W 005°38'0 3.7
2017-Sep-20 14:57N 57°21' W 005°39'6 5.8
2017-Sep-20 14:00N 57°17' W 005°45'  
2017-Sep-16 10:29N 57°21' W 005°54'3 6.5
2017-Sep-16 10:00N 57°19' W 005°49'4 6.8
2017-Sep-16 09:28N 57°21' W 005°43'2 0.6
2017-Sep-16 05:20N 57°21' W 005°38'0 0.0
2017-Sep-16 00:47N 57°21' W 005°38'0 0.0
2017-Sep-15 17:14N 57°21' W 005°38'0 0.0
2017-Sep-15 00:53N 57°21' W 005°38'0 0.0
2017-Sep-14 23:44N 57°21' W 005°38'0 0.0
2017-Sep-14 14:29N 57°21' W 005°38'0 0.0
2017-Sep-14 13:50N 57°21' W 005°38'0 0.0
2017-Sep-14 13:21N 57°21' W 005°38'0 0.0
2017-Sep-14 12:58N 57°21' W 005°38'2 3.9
2017-Sep-14 12:30N 57°22' W 005°41'3 5.5
2017-Sep-14 12:00N 57°20' W 005°46'4 7.6
2017-Sep-14 11:30N 57°19' W 005°52'  

Dump ship's entire track history